Location: Seven Kings
(51.5667°N, 0.1000°E)
Time: 11:58:43
(UTC+00:00)

Geosat - Pass Details

Date: 29 October 2020
Orbit: 763 x 766 km, 108.0° (Epoch: 25 November)

Event Time Altitude Azimuth Distance (km) Brightness Sun altitude
Exits shadow 19:33:07 57° 208° (SSW) 900 4.3 -27.7°
Drops below altitude 10° 19:37:05 10° 212° (SSW) 2,301 6.6 -28.3°
Sets 19:39:21 0° 212° (SSW) 3,223 7.4 -28.7°
